Weather History for Saranac Lake, NY

Change the Weather History Date:

Saturday, March 3, 2012

  Actual Average Record
Temperature  
Mean Temperature 35 °F 19 °F  
Max Temperature 42 °F 32 °F 59 °F (1972)
Min Temperature 28 °F 6 °F -25 °F (2011)
Degree Days  
Heating Degree Days 30 46  
Month to date heating degree days 99 139  
Since 1 July heating degree days 5847 6844  
Cooling Degree Days 0 0  
Month to date cooling degree days 0 0  
Year to date cooling degree days 0 0  
Moisture  
Dew Point 26 °F    
Average Humidity 62    
Maximum Humidity 79    
Minimum Humidity 45    
Precipitation  
Precipitation 0.06 in 0.05 in 1.22 in (1972)
Month to date precipitation 0.13 0.15  
Year to date precipitation 3.82 3.89  
Sea Level Pressure  
Sea Level Pressure 29.39 in    
Wind  
Wind Speed 17 mph (SW)    
Max Wind Speed 31 mph    
Max Gust Speed 44 mph    
Visibility 7 miles    
Events Rain , Snow    
T = Trace of Precipitation, MM = Missing Value Source: NWS Daily Summary

Daily Weather History Graph

Daily Weather History Graph

Search for Another Location

Airport:

Trip Planner

Search our weather history database for the weather conditions in past years. The results will help you decide how hot, cold, wet, or windy it might be!

Date:

Astronomy

Mar. 03, 2012 Rise Set
Actual Time 6:29 AM EST 5:48 PM EST
Civil Twilight 6:00 AM EST 6:17 PM EST
Nautical Twilight 5:27 AM EST 6:50 PM EST
Astronomical Twilight 4:53 AM EST 7:24 PM EST
Moon 12:46 PM EST (3/3) 3:14 AM EST (3/3)
Length of Visible Light 12h 16m
Length of Day
11h 18m
Waxing Gibbous, 75% of the Moon is Illuminated
Mar 3
Waxing Gibbous
Mar 8
Full
Mar 14
Last Quarter
Mar 22
New
Mar 30
First Quarter

Hourly Weather History & Observations

Time (EST) Temp. Windchill Dew Point Humidity Pressure Visibility Wind Dir Wind Speed Gust Speed Precip Events Conditions
12:51 AM 33.1 °F 22.6 °F 27.0 °F 78% 29.55 in 8.0 mi SSE 16.1 mph 24.2 mph 0.00 in Rain Light Freezing Rain
1:24 AM 33.8 °F 25.8 °F 26.6 °F 75% 29.48 in 10.0 mi SSE 10.4 mph 20.7 mph 0.01 in   Overcast
1:51 AM 34.0 °F 23.8 °F 27.0 °F 75% 29.49 in 10.0 mi South 16.1 mph 23.0 mph 0.01 in   Overcast
2:44 AM 35.6 °F 25.5 °F 26.6 °F 70% 29.41 in 10.0 mi South 17.3 mph 24.2 mph N/A   Overcast
2:51 AM 35.1 °F 24.8 °F 27.0 °F 72% 29.45 in 10.0 mi South 17.3 mph 24.2 mph N/A   Overcast
3:51 AM 36.0 °F 29.6 °F 28.0 °F 73% 29.41 in 10.0 mi SE 8.1 mph 23.0 mph N/A   Overcast
4:51 AM 37.0 °F 31.0 °F 28.9 °F 73% 29.39 in 10.0 mi SSE 8.1 mph - N/A   Overcast
5:51 AM 36.0 °F 28.5 °F 28.9 °F 76% 29.37 in 10.0 mi South 10.4 mph - N/A   Overcast
6:51 AM 39.0 °F 31.4 °F 32.0 °F 76% 29.34 in 10.0 mi South 12.7 mph 21.9 mph N/A   Overcast
7:51 AM 39.0 °F 29.0 °F 33.1 °F 79% 29.32 in 10.0 mi SSW 20.7 mph 31.1 mph N/A   Overcast
8:47 AM 39.2 °F 29.3 °F 33.8 °F 81% 29.27 in 10.0 mi South 20.7 mph 29.9 mph N/A   Mostly Cloudy
8:51 AM 39.9 °F 30.5 °F 34.0 °F 79% 29.31 in 10.0 mi SSW 19.6 mph 29.9 mph N/A   Mostly Cloudy
9:51 AM 35.1 °F 26.9 °F 32.0 °F 89% 29.34 in 1.8 mi WSW 11.5 mph 31.1 mph 0.03 in Rain Rain
9:54 AM 35.6 °F 26.6 °F 32.0 °F 87% 29.30 in 2.0 mi WSW 13.8 mph 21.9 mph 0.01 in Rain Rain
10:01 AM 33.8 °F 26.4 °F 30.2 °F 87% 29.30 in 2.5 mi WSW 9.2 mph 20.7 mph 0.01 in Snow Light Snow
10:04 AM 33.8 °F 25.3 °F 30.2 °F 87% 29.30 in 2.0 mi WSW 11.5 mph 18.4 mph 0.02 in Snow Light Snow
10:23 AM 33.8 °F 24.3 °F 32.0 °F 93% 29.30 in 3.0 mi WSW 13.8 mph 24.2 mph 0.02 in Snow Light Snow
10:35 AM 35.6 °F 26.2 °F 32.0 °F 87% 29.31 in 5.0 mi WSW 15.0 mph 24.2 mph 0.02 in   Overcast
10:51 AM 35.1 °F 25.2 °F 32.0 °F 89% 29.36 in 10.0 mi SW 16.1 mph 32.2 mph 0.02 in   Overcast
11:15 AM 39.2 °F 32.5 °F 32.0 °F 75% 29.32 in 10.0 mi WSW 10.4 mph 24.2 mph N/A   Scattered Clouds
11:51 AM 37.9 °F 27.9 °F 28.0 °F 68% 29.35 in 10.0 mi SW 19.6 mph 27.6 mph N/A   Overcast
12:51 PM 41.0 °F 32.8 °F 21.0 °F 45% 29.31 in 10.0 mi WSW 16.1 mph 32.2 mph N/A   Scattered Clouds
1:51 PM 41.0 °F 32.2 °F 21.0 °F 45% 29.31 in 10.0 mi West 18.4 mph 25.3 mph N/A   Partly Cloudy
2:51 PM 39.9 °F 29.7 °F 21.0 °F 47% 29.31 in 10.0 mi SW 23.0 mph 39.1 mph N/A   Overcast
3:51 PM 37.0 °F 27.0 °F 21.0 °F 52% 29.34 in 10.0 mi WSW 18.4 mph 33.4 mph 0.00 in   Overcast
4:51 PM 35.1 °F 24.1 °F 21.0 °F 57% 29.36 in 10.0 mi WSW 19.6 mph 33.4 mph N/A   Overcast
5:51 PM 33.1 °F 20.3 °F 19.9 °F 59% 29.39 in 10.0 mi WSW 24.2 mph 34.5 mph N/A   Overcast
6:51 PM 32.0 °F 19.8 °F 21.0 °F 64% 29.42 in 7.0 mi WSW 20.7 mph 32.2 mph 0.00 in Snow Light Snow
7:24 PM 30.2 °F 18.9 °F 21.2 °F 69% 29.40 in 7.0 mi WSW 16.1 mph 25.3 mph 0.00 in Snow Light Snow
7:51 PM 30.9 °F 18.4 °F 21.9 °F 69% 29.45 in 7.0 mi SW 20.7 mph 31.1 mph 0.00 in Snow Light Snow
8:51 PM 30.9 °F 17.5 °F 21.0 °F 67% 29.45 in 10.0 mi SW 24.2 mph 34.5 mph 0.00 in   Overcast
9:51 PM 30.0 °F 18.7 °F 21.0 °F 69% 29.47 in 6.0 mi SW 16.1 mph 32.2 mph 0.00 in Snow Light Snow
10:14 PM 30.2 °F 17.8 °F 21.2 °F 69% 29.44 in 5.0 mi WSW 19.6 mph 28.8 mph 0.00 in Snow Light Snow
10:51 PM 30.0 °F 18.7 °F 23.0 °F 75% 29.49 in 3.0 mi SW 16.1 mph 27.6 mph 0.00 in Snow Light Snow
10:58 PM 30.2 °F 19.3 °F 23.0 °F 75% 29.45 in 1.8 mi WSW 15.0 mph 23.0 mph 0.00 in Snow Light Snow
11:13 PM 28.4 °F 18.0 °F 24.8 °F 86% 29.45 in 3.0 mi WSW 12.7 mph 25.3 mph 0.00 in Snow Light Snow
11:51 PM 28.9 °F 18.2 °F 24.1 °F 82% 29.50 in 6.0 mi SW 13.8 mph 24.2 mph 0.00 in Snow Light Snow
11:56 PM 28.4 °F 17.5 °F 24.8 °F 86% 29.46 in 1.8 mi SW 13.8 mph 24.2 mph 0.00 in Snow Light Snow